SCP
0 0 0 0 -0 -0 0 0 0 0 -0 -0 -0 -0 -0 -0 -0 -0 -0 -0 -0 -0 0 -0 -0 -0 -0 0 0 0 0 0 0 0 0 0 0 0 0 0 0 0 0 0 -0 -0 0 0 0
-0 0 0 0 -0 -0 0 -0 0 -0 -0 -0 0 -0 -0 -0 -0 -0 -0 -0 -0 -0 0 0 0 0 0 0 0 0 0 0 0 0 -0 -0 0 0 0 0 0 0 0 0 -0 -0 0 0 0
-0 0 0 0 0 -0 -0 0 0 -0 -0 -0 -0 -0 -0 0 -0 0 0 0 -0 0 0 0 0 0 0 0 0 0 0 -0 -0 -0 -0 -0 -0 -0 -0 -0 -0 -0 -0 0 -0 -0 -0 -0 -0
0 -0 -0 0 0 0 0 -0 -0 -0 -0 -0 -0 -0 -0 -0 0 0 0 0 0 0 0 0 0 0 0 0 0 -0 -0 -0 -0 -0 -0 -0 -0 -0 -0 -0 -0 -0 -0 -0 -0 -0 -0 -0 -0
0 0 0 -0 0 0 -0 -0 -0 -0 -0 -0 -0 -0 -0 -0 0 0 -0 -0 -0 0 0 0 0 0 0 0 0 -0 -0 -0 -0 -0 -0 -0 -0 -0 -0 -0 -0 -0 -0 -0 -0 -0 -0 -0 -0
0 0 0 0 0 0 0 0 -0 -0 -0 -0 -0 -0 0 0 0 -0 -0 -0 -0 0 0 0 0 0 0 0 0 -0 -0 -0 -0 -0 -0 -0 -0 -0 -0 -0 -0 -0 -0 -0 -0 -0 -0 -0 -0
0 0 0 0 -0 0 0 0 0 0 0 0 0 -0 0 -0 0 -0 -0 -0 -0 -0 0 0 0 0 -0 0 -0 -0 -0 -0 -0 -0 -0 -0 -0 -0 -0 -0 -0 -0 -0 -0 -0 -0 -0 -0 -0
0 0 0 0 -0 0 -0 0 0 0 0 -0 0 -0 -0 -0 -0 -0 -0 0 -0 0 -0 0 0 -0 -0 -0 0 0 0 -0 -0 -0 -0 -0 -0 -0 -0 0 0 0 0 0 0 0 0 0 0
0 0 0 -0 -0 0 0 0 0 -0 -0 -0 -0 0 -0 -0 -0 -0 -0 -0 -0 -0 -0 0 0 0 -0 -0 -0 0 0 0 0 0 0 0 0 0 0 0 0 0 0 0 0 0 0 0 0
0 0 -0 0 -0 0 0 0 0 -0 0 -0 -0 -0 -0 0 -0 -0 -0 -0 -0 -0 -0 -0 -0 -0 -0 0 0 0 0 -0 -0 -0 0 0 0 0 0 0 0 0 0 0 0 0 0 0 0
0 0 0 0 -0 -0 0 0 0 -0 0 -0 -0 -0 0 -0 -0 0 -0 -0 -0 -0 0 0 0 -0 0 0 0 -0 0 0 -0 0 0 0 0 0 0 0 0 0 0 0 0 0 0 0 0
0 0 0 -0 -0 -0 0 0 0 0 0 -0 0 0 -0 -0 -0 0 0 -0 -0 -0 -0 -0 0 0 0 0 0 0 0 0 0 0 0 0 0 0 0 0 -0 0 0 0 0 0 0 0 0
0 0 0 0 0 0 0 0 -0 -0 -0 0 0 0 -0 -0 0 0 0 -0 0 -0 -0 0 0 0 0 0 0 0 0 0 0 0 0 0 0 0 0 0 0 0 0 0 0 0 0 0 0
0 0 0 0 -0 -0 -0 -0 0 0 0 -0 0 -0 0 0 0 0 0 1 0 0 1 0 0 0 0 0 0 0 0 0 0 1 1 1 1 0 0 0 0 0 0 0 0 0 0 0 -0
0 0 0 0 0 0 0 0 -0 0 0 0 0 0 0 0 0 1 1 1 0 0 0 0 0 0 0 1 0 1 1 1 1 0 0 0 0 0 0 0 0 0 0 0 -0 -0 0 0 0
0 0 0 0 -0 -0 0 0 0 0 0 0 0 0 0 0 0 0 0 0 0 0 0 0 0 0 0 1 1 1 1 0 0 0 0 0 0 0 0 0 0 0 0 0 0 0 0 0 0
0 0 -0 -0 0 0 0 0 0 0 0 0 0 0 1 1 0 0 0 0 0 0 1 1 1 1 1 1 1 1 0 0 0 0 0 0 0 0 0 0 0 0 0 0 0 0 0 0 0
-0 -0 -0 -0 0 0 0 0 0 0 0 0 0 0 0 0 0 0 0 0 0 0 0 1 1 1 1 1 1 1 0 0 0 0 0 0 0 0 0 0 0 0 0 0 0 0 0 0 0
0 0 -0 0 0 0 0 0 0 0 0 -0 0 -0 -0 0 0 0 0 0 0 0 0 0 0 1 1 1 1 1 1 0 0 0 0 0 0 0 0 0 0 0 0 0 0 0 0 0 0
0 0 0 0 0 0 0 0 0 0 0 0 0 0 0 0 0 0 0 0 0 0 0 0 0 0 0 0 0 0 0 0 0 0 0 0 0 0 0 0 0 0 0 0 0 0 0 0 0
0 0 0 0 0 0 0 0 0 0 0 0 0 1 0 0 0 0 0 0 0 0 0 0 0 0 0 0 0 0 0 0 0 0 0 0 0 0 0 0 0 0 0 0 0 0 0 0 0
0 0 0 0 0 0 0 0 0 0 0 0 0 1 0 0 0 0 0 0 0 0 0 0 0 0 0 0 0 0 0 0 0 0 0 0 0 -0 0 0 0 0 0 0 0 0 0 0 0
0 0 0 -0 0 0 0 0 0 0 0 0 0 1 0 0 0 0 0 0 0 0 0 0 0 0 0 0 0 0 0 0 0 0 0 0 -0 -0 -0 0 0 0 0 0 0 0 0 0 0
0 0 0 0 0 0 -0 0 -0 0 0 0 0 1 0 0 0 0 0 0 0 0 0 0 0 0 0 0 0 0 0 0 0 0 0 -0 -0 -0 -0 -0 -0 0 0 0 0 0 0 0 0
0 0 0 0 0 0 -0 0 -0 0 0 0 0 1 0 0 0 0 0 0 0 0 0 0 0 0 0 0 0 0 0 0 0 0 0 0 0 0 0 -0 -0 0 0 0 0 0 0 0 0
0 0 0 0 0 0 0 0 0 0 0 0 0 0 0 0 0 0 0 0 0 0 0 0 0 0 0 0 0 0 0 0 0 0 0 0 0 0 0 0 0 0 0 0 0 0 0 0 0
0 0 0 0 0 0 -0 0 0 0 0 0 0 0 1 0 0 0 0 0 0 0 0 0 0 0 0 0 0 0 0 0 0 0 0 0 0 0 0 0 0 0 0 0 0 0 0 0 0
0 0 0 0 0 0 0 0 0 0 0 0 0 0 0 0 0 0 0 0 0 0 0 0 0 0 0 0 0 0 0 0 0 0 0 0 0 0 0 0 0 0 0 0 0 0 0 0 0
0 0 0 0 0 0 0 0 -0 0 0 0 0 0 0 0 0 0 0 0 0 0 0 0 0 0 0 0 0 0 0 0 0 0 0 0 0 0 0 0 0 0 0 0 0 0 0 0 0
0 0 0 0 0 0 0 0 0 0 0 0 0 0 0 0 0 0 0 0 0 0 0 0 0 0 0 0 0 0 0 0 0 0 0 0 0 0 0 0 0 0 0 0 0 0 0 0 0
Wind_Speed_500mb
20 13 16 9 10 12 8 14 18 30 34 68 68 46 42 42 15 27 49 41 46 36 34 31 28 28 26 25 24 20 19 20 20 21 21 22 22 23 24 23 22 20 20 22 26 27 23 18 19
14 10 15 9 10 11 10 15 21 33 56 68 67 71 74 49 63 66 49 44 42 39 33 31 29 28 27 25 23 21 21 22 22 23 22 22 22 22 22 22 22 22 21 21 23 20 16 13 14
8 4 5 9 2 8 12 31 36 48 62 53 29 35 21 35 39 47 40 43 45 44 38 36 34 33 31 28 26 26 24 23 23 23 23 22 21 20 18 18 17 17 16 15 15 13 9 6 5
3 8 13 1 14 11 7 22 69 54 70 58 44 29 61 61 45 41 42 51 47 44 40 38 35 33 31 29 27 26 24 24 24 23 23 22 21 19 15 13 11 10 8 6 7 8 7 5 4
12 13 2 9 20 7 8 83 52 24 41 57 64 34 54 51 46 47 45 36 40 41 37 35 31 28 27 26 25 24 23 22 22 21 21 21 20 18 16 13 9 6 3 1 4 8 10 11 11
11 9 3 8 25 5 27 65 79 57 54 50 60 54 51 46 46 60 42 26 25 35 33 30 28 25 24 23 22 21 21 20 20 20 20 21 21 21 20 18 17 14 10 9 10 13 16 18 19
16 1 13 14 8 8 20 63 56 52 54 37 37 28 45 41 44 59 38 25 27 27 29 27 24 23 23 22 20 19 18 17 17 19 20 19 27 23 26 25 27 26 24 20 17 15 16 18 20
30 4 19 14 10 8 17 29 82 73 45 45 36 17 42 51 49 52 29 16 19 27 26 24 24 21 25 21 18 15 15 15 16 17 21 26 19 24 23 28 31 32 31 29 29 27 24 20 17
31 5 13 18 15 17 22 36 35 49 67 62 45 58 65 56 57 48 34 25 20 16 16 20 24 19 17 23 24 13 20 15 15 15 18 19 21 20 26 31 32 33 33 32 30 28 26 29 19
11 3 14 12 14 28 47 47 27 20 37 38 62 59 60 55 60 54 49 42 31 16 13 22 20 11 11 16 20 19 19 21 25 25 24 12 17 18 24 27 33 30 29 32 31 31 29 24 19
27 13 9 48 80 79 67 69 67 63 12 59 63 69 61 52 53 49 49 45 40 26 28 30 22 23 6 5 12 19 16 15 24 22 24 31 21 10 16 22 28 30 31 35 32 33 32 37 27
6 24 52 60 83 64 41 49 36 61 17 61 59 57 56 47 47 42 50 45 47 53 35 30 21 31 18 15 7 12 12 14 15 20 27 24 20 11 10 12 19 28 33 35 34 39 37 38 38
9 4 54 74 84 94 74 56 60 45 60 50 54 52 50 44 37 53 45 59 52 42 28 21 13 18 36 23 20 16 9 9 12 12 13 8 15 22 23 20 18 16 24 25 28 32 35 37 33
5 12 55 53 68 60 49 40 52 44 57 46 59 54 44 39 33 38 43 51 50 42 36 25 13 9 15 21 27 20 17 14 15 14 15 20 27 31 30 21 24 30 27 30 32 30 34 36 42
11 9 6 34 36 14 48 23 21 71 62 50 45 39 33 25 21 26 28 31 34 35 35 26 8 12 10 15 9 10 22 17 25 21 20 28 37 31 25 29 34 37 36 39 43 48 45 40 41
9 12 6 14 31 36 19 20 21 62 59 50 43 37 29 21 16 14 20 24 27 29 28 23 15 11 7 22 23 19 21 24 25 25 27 31 30 29 31 38 43 47 46 48 48 49 51 51 42
4 10 13 21 28 21 13 37 41 63 58 52 47 43 38 31 20 21 20 26 31 26 24 26 32 21 10 27 25 27 21 23 23 26 26 29 32 34 33 32 31 29 28 31 36 37 41 44 44
14 12 16 17 17 17 16 21 34 67 65 59 61 58 49 38 30 23 22 21 24 27 24 20 32 24 19 20 19 14 14 17 16 11 12 16 16 18 21 23 28 31 28 32 36 38 35 35 36
14 14 18 3 13 15 15 35 34 51 56 56 63 66 59 53 47 30 22 20 18 17 21 21 27 27 23 24 18 12 11 4 9 13 18 22 22 21 24 26 26 20 22 29 37 42 42 38 40
20 16 13 6 13 12 10 6 21 36 42 69 67 72 73 65 50 39 26 17 14 16 20 27 29 27 23 19 20 20 12 12 9 19 27 27 29 28 27 27 27 20 21 24 29 38 43 40 42
13 6 13 7 7 8 9 8 14 25 53 57 70 79 85 74 61 43 33 23 14 14 17 26 30 25 27 32 34 30 27 17 4 16 21 27 30 32 29 28 28 24 29 30 27 33 38 44 39
11 14 17 21 5 4 11 9 15 18 26 24 44 67 79 69 56 49 39 27 19 16 17 26 30 27 24 24 27 23 18 10 4 12 17 24 30 35 30 30 31 32 32 30 27 29 37 39 45
18 14 7 17 1 9 18 6 17 11 14 20 36 64 81 69 64 56 46 36 28 22 22 27 29 28 29 28 22 16 15 14 12 20 13 17 27 32 31 31 31 32 34 31 29 29 32 34 42
7 13 15 12 8 9 16 8 23 12 18 16 30 71 80 79 66 56 46 42 34 24 26 31 32 33 30 27 26 17 14 16 16 18 13 7 18 24 28 30 33 35 35 34 30 30 28 34 36
16 14 8 8 5 14 19 9 33 2 17 10 30 64 78 81 70 64 60 51 40 37 26 34 34 32 29 26 25 23 20 17 12 14 16 7 9 19 24 28 28 33 38 42 40 39 39 33 31
7 16 10 10 6 8 16 10 4 18 39 45 26 51 72 78 72 69 65 55 50 42 28 33 32 27 24 23 23 21 17 16 12 5 8 5 4 11 20 22 24 30 34 35 38 41 42 34 33
12 6 17 2 8 7 6 6 14 19 19 30 29 39 65 63 67 68 62 54 53 45 33 30 27 22 17 15 14 14 15 10 2 11 5 6 14 18 21 18 20 24 30 28 30 38 31 41 44
6 2 10 8 2 8 10 9 7 11 15 16 19 18 48 65 71 70 64 54 53 49 38 29 23 21 16 11 8 12 13 11 4 7 13 15 17 22 28 30 30 32 35 37 36 40 37 30 38
8 4 1 8 8 6 2 10 12 11 17 19 28 36 47 61 66 69 64 59 61 57 52 42 35 31 25 16 9 8 2 2 4 12 10 14 23 32 36 36 36 37 39 36 37 38 31 38 48
17 19 16 10 14 6 9 12 6 16 22 36 30 36 41 42 45 58 65 66 66 58 46 33 41 35 25 17 18 17 14 19 18 18 20 24 31 38 41 42 37 39 36 34 34 35 45 44 47
Wind_Direction_500mb
307 300 313 342 61 35 289 245 256 112 74 79 73 78 79 56 97 118 138 130 124 126 126 123 119 116 113 108 104 97 86 78 72 69 69 71 73 77 79 79 81 85 94 105 120 127 122 103 87
293 322 296 289 112 150 258 273 259 119 115 95 87 86 71 77 102 126 120 125 125 125 123 120 119 116 114 112 106 98 91 85 79 76 73 74 79 83 84 86 87 89 93 107 124 128 125 102 93
271 258 246 162 220 151 195 210 227 118 105 95 70 46 69 103 111 122 116 137 128 126 125 121 116 112 110 109 106 100 93 87 82 77 74 73 77 82 85 87 91 94 99 113 133 142 143 123 109
119 238 256 214 216 220 9 110 73 81 89 92 92 66 90 108 110 117 119 120 124 124 125 121 119 116 113 110 107 102 95 87 79 74 71 69 70 73 77 80 83 85 93 120 158 184 210 228 229
275 258 217 277 260 304 96 95 95 79 77 88 101 108 102 112 112 122 131 115 124 126 126 122 120 116 111 107 103 100 95 89 84 80 76 72 68 66 64 61 55 48 35 327 254 253 261 271 280
269 240 352 253 238 81 94 92 85 78 66 82 96 103 113 121 128 139 142 129 114 124 124 122 119 114 108 103 100 97 91 86 81 76 70 66 61 56 49 46 38 25 4 332 299 279 275 276 278
223 215 245 273 173 29 110 98 104 95 71 58 128 118 130 136 136 150 145 124 117 120 122 119 114 112 107 100 96 93 90 85 78 71 63 61 58 51 41 40 25 19 13 6 353 333 312 297 291
242 196 308 287 51 128 186 121 120 110 108 149 156 158 153 149 140 144 128 109 106 101 111 106 98 102 95 75 79 78 75 68 65 65 64 56 44 32 25 22 20 19 12 13 8 14 5 350 333
267 336 290 299 131 142 139 95 112 132 158 177 207 158 150 148 150 146 140 150 129 94 95 108 89 94 87 78 39 45 55 48 43 52 50 50 31 13 1 11 4 3 11 6 1 359 7 12 20
172 158 252 202 65 89 69 73 93 169 160 177 133 145 152 156 155 152 150 163 160 157 147 117 91 86 69 41 35 51 29 39 29 17 21 19 12 3 355 355 354 349 354 351 350 353 358 354 359
220 218 336 67 92 90 76 50 44 348 138 129 140 149 155 161 160 167 168 163 172 157 149 164 126 112 24 331 37 18 13 25 16 360 9 2 13 2 356 343 338 339 338 339 337 327 330 334 327
204 227 104 112 111 97 87 89 104 264 281 145 146 154 160 164 167 178 174 164 156 140 142 147 159 156 160 122 89 348 23 27 24 19 6 350 339 319 329 299 313 327 331 329 329 325 324 323 322
335 250 103 107 110 117 124 131 130 252 274 150 154 161 159 161 119 133 128 143 137 137 133 135 178 193 197 188 182 179 151 83 38 17 4 334 301 301 279 284 292 282 300 307 306 304 299 296 301
4 114 123 117 143 150 136 146 124 216 235 170 172 167 144 129 117 122 129 131 141 148 146 144 147 226 223 203 209 213 225 232 241 242 245 249 277 289 296 294 285 272 273 276 281 292 286 278 279
33 8 332 132 159 121 121 117 212 197 182 157 136 128 127 124 141 130 134 141 152 165 172 177 212 248 243 220 178 158 204 215 219 229 242 262 275 292 311 296 289 291 288 282 279 284 287 284 286
107 11 316 255 153 169 139 187 256 144 139 126 124 123 120 129 162 155 172 175 193 193 207 185 157 228 198 169 190 184 209 232 237 242 255 266 277 282 284 285 288 288 291 293 294 292 289 296 300
15 240 261 276 186 150 182 150 157 148 146 145 150 149 146 142 147 166 180 175 187 193 199 171 181 200 187 180 192 197 209 220 234 261 270 273 285 292 297 299 304 315 323 317 313 315 316 316 309
243 228 261 233 188 152 157 147 160 162 160 156 158 157 151 150 148 155 160 180 188 189 197 178 188 191 159 153 189 203 230 245 259 286 300 300 314 327 332 340 339 338 344 334 333 334 334 342 338
269 279 270 356 116 135 153 146 172 173 164 162 166 160 160 165 162 166 169 193 196 183 178 167 163 167 180 181 181 144 109 59 29 2 12 7 5 360 355 360 9 13 4 343 340 341 345 353 345
267 276 291 39 117 107 95 135 197 178 177 173 171 165 162 155 157 168 182 201 201 182 174 162 165 170 173 181 157 136 109 80 19 12 12 23 18 18 13 10 19 9 359 355 359 7 5 7 4
270 298 298 240 125 94 118 311 264 188 187 185 180 170 167 165 159 162 165 180 208 193 178 167 168 166 143 135 130 146 138 136 63 357 18 25 19 20 19 19 23 15 8 10 3 10 10 7 14
321 292 317 288 62 211 118 259 275 199 193 183 181 155 159 159 163 165 172 179 195 201 179 163 165 165 151 140 147 157 164 187 137 61 40 20 12 17 23 26 28 30 26 19 17 20 16 7 6
249 255 328 256 178 55 305 86 263 245 189 190 176 151 160 166 166 167 173 179 190 207 191 166 157 153 143 150 154 148 140 116 110 93 73 7 358 6 10 14 15 18 26 32 23 23 9 6 355
78 42 358 18 61 6 254 195 277 247 195 155 161 149 161 166 166 167 172 174 180 199 183 169 159 153 146 145 147 145 105 100 110 124 110 10 342 355 2 4 9 11 11 21 11 9 5 360 2
84 57 353 348 355 229 263 238 237 175 104 149 166 151 157 164 163 163 170 173 179 189 190 172 165 157 149 139 131 129 131 139 118 117 157 170 317 345 2 1 7 10 8 3 3 3 0 352 356
182 150 161 223 225 257 337 291 289 88 71 62 158 171 151 162 165 170 172 173 180 192 197 185 176 168 154 142 138 135 126 136 150 158 153 149 296 336 346 357 7 3 356 348 343 345 354 343 344
263 176 211 180 274 39 247 21 27 73 80 83 77 110 151 164 170 172 173 175 182 194 206 203 192 179 169 151 146 154 158 188 176 134 105 317 338 353 350 352 348 340 320 318 317 318 334 327 333
107 247 22 357 162 280 283 285 178 115 130 121 127 139 167 170 175 176 176 180 185 196 198 206 211 195 193 183 161 149 176 203 302 357 353 355 342 325 327 327 319 315 310 305 303 307 316 317 320
324 285 241 152 147 174 314 280 200 161 167 162 171 171 162 166 175 179 182 185 186 193 199 207 206 215 208 206 196 214 286 105 298 309 298 309 315 310 310 315 316 314 314 307 306 305 314 316 315
204 205 179 138 274 226 180 258 146 155 171 163 172 169 176 178 177 188 186 183 186 193 201 214 208 214 211 218 215 219 214 209 236 260 283 288 299 307 307 309 309 311 307 311 311 310 314 312 313
Wind_Speed_850mb
20 13 16 9 10 12 8 14 18 30 34 68 68 46 42 42 15 27 49 41 46 36 34 31 28 28 26 25 24 20 19 20 20 21 21 22 22 23 24 23 22 20 20 22 26 27 23 18 19
14 10 15 9 10 11 10 15 21 33 56 68 67 71 74 49 63 66 49 44 42 39 33 31 29 28 27 25 23 21 21 22 22 23 22 22 22 22 22 22 22 22 21 21 23 20 16 13 14
8 4 5 9 2 8 12 31 36 48 62 53 29 35 21 35 39 47 40 43 45 44 38 36 34 33 31 28 26 26 24 23 23 23 23 22 21 20 18 18 17 17 16 15 15 13 9 6 5
3 8 13 1 14 11 7 22 69 54 70 58 44 29 61 61 45 41 42 51 47 44 40 38 35 33 31 29 27 26 24 24 24 23 23 22 21 19 15 13 11 10 8 6 7 8 7 5 4
12 13 2 9 20 7 8 83 52 24 41 57 64 34 54 51 46 47 45 36 40 41 37 35 31 28 27 26 25 24 23 22 22 21 21 21 20 18 16 13 9 6 3 1 4 8 10 11 11
11 9 3 8 25 5 27 65 79 57 54 50 60 54 51 46 46 60 42 26 25 35 33 30 28 25 24 23 22 21 21 20 20 20 20 21 21 21 20 18 17 14 10 9 10 13 16 18 19
16 1 13 14 8 8 20 63 56 52 54 37 37 28 45 41 44 59 38 25 27 27 29 27 24 23 23 22 20 19 18 17 17 19 20 19 27 23 26 25 27 26 24 20 17 15 16 18 20
30 4 19 14 10 8 17 29 82 73 45 45 36 17 42 51 49 52 29 16 19 27 26 24 24 21 25 21 18 15 15 15 16 17 21 26 19 24 23 28 31 32 31 29 29 27 24 20 17
31 5 13 18 15 17 22 36 35 49 67 62 45 58 65 56 57 48 34 25 20 16 16 20 24 19 17 23 24 13 20 15 15 15 18 19 21 20 26 31 32 33 33 32 30 28 26 29 19
11 3 14 12 14 28 47 47 27 20 37 38 62 59 60 55 60 54 49 42 31 16 13 22 20 11 11 16 20 19 19 21 25 25 24 12 17 18 24 27 33 30 29 32 31 31 29 24 19
27 13 9 48 80 79 67 69 67 63 12 59 63 69 61 52 53 49 49 45 40 26 28 30 22 23 6 5 12 19 16 15 24 22 24 31 21 10 16 22 28 30 31 35 32 33 32 37 27
6 24 52 60 83 64 41 49 36 61 17 61 59 57 56 47 47 42 50 45 47 53 35 30 21 31 18 15 7 12 12 14 15 20 27 24 20 11 10 12 19 28 33 35 34 39 37 38 38
9 4 54 74 84 94 74 56 60 45 60 50 54 52 50 44 37 53 45 59 52 42 28 21 13 18 36 23 20 16 9 9 12 12 13 8 15 22 23 20 18 16 24 25 28 32 35 37 33
5 12 55 53 68 60 49 40 52 44 57 46 59 54 44 39 33 38 43 51 50 42 36 25 13 9 15 21 27 20 17 14 15 14 15 20 27 31 30 21 24 30 27 30 32 30 34 36 42
11 9 6 34 36 14 48 23 21 71 62 50 45 39 33 25 21 26 28 31 34 35 35 26 8 12 10 15 9 10 22 17 25 21 20 28 37 31 25 29 34 37 36 39 43 48 45 40 41
9 12 6 14 31 36 19 20 21 62 59 50 43 37 29 21 16 14 20 24 27 29 28 23 15 11 7 22 23 19 21 24 25 25 27 31 30 29 31 38 43 47 46 48 48 49 51 51 42
4 10 13 21 28 21 13 37 41 63 58 52 47 43 38 31 20 21 20 26 31 26 24 26 32 21 10 27 25 27 21 23 23 26 26 29 32 34 33 32 31 29 28 31 36 37 41 44 44
14 12 16 17 17 17 16 21 34 67 65 59 61 58 49 38 30 23 22 21 24 27 24 20 32 24 19 20 19 14 14 17 16 11 12 16 16 18 21 23 28 31 28 32 36 38 35 35 36
14 14 18 3 13 15 15 35 34 51 56 56 63 66 59 53 47 30 22 20 18 17 21 21 27 27 23 24 18 12 11 4 9 13 18 22 22 21 24 26 26 20 22 29 37 42 42 38 40
20 16 13 6 13 12 10 6 21 36 42 69 67 72 73 65 50 39 26 17 14 16 20 27 29 27 23 19 20 20 12 12 9 19 27 27 29 28 27 27 27 20 21 24 29 38 43 40 42
13 6 13 7 7 8 9 8 14 25 53 57 70 79 85 74 61 43 33 23 14 14 17 26 30 25 27 32 34 30 27 17 4 16 21 27 30 32 29 28 28 24 29 30 27 33 38 44 39
11 14 17 21 5 4 11 9 15 18 26 24 44 67 79 69 56 49 39 27 19 16 17 26 30 27 24 24 27 23 18 10 4 12 17 24 30 35 30 30 31 32 32 30 27 29 37 39 45
18 14 7 17 1 9 18 6 17 11 14 20 36 64 81 69 64 56 46 36 28 22 22 27 29 28 29 28 22 16 15 14 12 20 13 17 27 32 31 31 31 32 34 31 29 29 32 34 42
7 13 15 12 8 9 16 8 23 12 18 16 30 71 80 79 66 56 46 42 34 24 26 31 32 33 30 27 26 17 14 16 16 18 13 7 18 24 28 30 33 35 35 34 30 30 28 34 36
16 14 8 8 5 14 19 9 33 2 17 10 30 64 78 81 70 64 60 51 40 37 26 34 34 32 29 26 25 23 20 17 12 14 16 7 9 19 24 28 28 33 38 42 40 39 39 33 31
7 16 10 10 6 8 16 10 4 18 39 45 26 51 72 78 72 69 65 55 50 42 28 33 32 27 24 23 23 21 17 16 12 5 8 5 4 11 20 22 24 30 34 35 38 41 42 34 33
12 6 17 2 8 7 6 6 14 19 19 30 29 39 65 63 67 68 62 54 53 45 33 30 27 22 17 15 14 14 15 10 2 11 5 6 14 18 21 18 20 24 30 28 30 38 31 41 44
6 2 10 8 2 8 10 9 7 11 15 16 19 18 48 65 71 70 64 54 53 49 38 29 23 21 16 11 8 12 13 11 4 7 13 15 17 22 28 30 30 32 35 37 36 40 37 30 38
8 4 1 8 8 6 2 10 12 11 17 19 28 36 47 61 66 69 64 59 61 57 52 42 35 31 25 16 9 8 2 2 4 12 10 14 23 32 36 36 36 37 39 36 37 38 31 38 48
17 19 16 10 14 6 9 12 6 16 22 36 30 36 41 42 45 58 65 66 66 58 46 33 41 35 25 17 18 17 14 19 18 18 20 24 31 38 41 42 37 39 36 34 34 35 45 44 47
Wind_Direction_850mb
307 300 313 342 61 35 289 245 256 112 74 79 73 78 79 56 97 118 138 130 124 126 126 123 119 116 113 108 104 97 86 78 72 69 69 71 73 77 79 79 81 85 94 105 120 127 122 103 87
293 322 296 289 112 150 258 273 259 119 115 95 87 86 71 77 102 126 120 125 125 125 123 120 119 116 114 112 106 98 91 85 79 76 73 74 79 83 84 86 87 89 93 107 124 128 125 102 93
271 258 246 162 220 151 195 210 227 118 105 95 70 46 69 103 111 122 116 137 128 126 125 121 116 112 110 109 106 100 93 87 82 77 74 73 77 82 85 87 91 94 99 113 133 142 143 123 109
119 238 256 214 216 220 9 110 73 81 89 92 92 66 90 108 110 117 119 120 124 124 125 121 119 116 113 110 107 102 95 87 79 74 71 69 70 73 77 80 83 85 93 120 158 184 210 228 229
275 258 217 277 260 304 96 95 95 79 77 88 101 108 102 112 112 122 131 115 124 126 126 122 120 116 111 107 103 100 95 89 84 80 76 72 68 66 64 61 55 48 35 327 254 253 261 271 280
269 240 352 253 238 81 94 92 85 78 66 82 96 103 113 121 128 139 142 129 114 124 124 122 119 114 108 103 100 97 91 86 81 76 70 66 61 56 49 46 38 25 4 332 299 279 275 276 278
223 215 245 273 173 29 110 98 104 95 71 58 128 118 130 136 136 150 145 124 117 120 122 119 114 112 107 100 96 93 90 85 78 71 63 61 58 51 41 40 25 19 13 6 353 333 312 297 291
242 196 308 287 51 128 186 121 120 110 108 149 156 158 153 149 140 144 128 109 106 101 111 106 98 102 95 75 79 78 75 68 65 65 64 56 44 32 25 22 20 19 12 13 8 14 5 350 333
267 336 290 299 131 142 139 95 112 132 158 177 207 158 150 148 150 146 140 150 129 94 95 108 89 94 87 78 39 45 55 48 43 52 50 50 31 13 1 11 4 3 11 6 1 359 7 12 20
172 158 252 202 65 89 69 73 93 169 160 177 133 145 152 156 155 152 150 163 160 157 147 117 91 86 69 41 35 51 29 39 29 17 21 19 12 3 355 355 354 349 354 351 350 353 358 354 359
220 218 336 67 92 90 76 50 44 348 138 129 140 149 155 161 160 167 168 163 172 157 149 164 126 112 24 331 37 18 13 25 16 360 9 2 13 2 356 343 338 339 338 339 337 327 330 334 327
204 227 104 112 111 97 87 89 104 264 281 145 146 154 160 164 167 178 174 164 156 140 142 147 159 156 160 122 89 348 23 27 24 19 6 350 339 319 329 299 313 327 331 329 329 325 324 323 322
335 250 103 107 110 117 124 131 130 252 274 150 154 161 159 161 119 133 128 143 137 137 133 135 178 193 197 188 182 179 151 83 38 17 4 334 301 301 279 284 292 282 300 307 306 304 299 296 301
4 114 123 117 143 150 136 146 124 216 235 170 172 167 144 129 117 122 129 131 141 148 146 144 147 226 223 203 209 213 225 232 241 242 245 249 277 289 296 294 285 272 273 276 281 292 286 278 279
33 8 332 132 159 121 121 117 212 197 182 157 136 128 127 124 141 130 134 141 152 165 172 177 212 248 243 220 178 158 204 215 219 229 242 262 275 292 311 296 289 291 288 282 279 284 287 284 286
107 11 316 255 153 169 139 187 256 144 139 126 124 123 120 129 162 155 172 175 193 193 207 185 157 228 198 169 190 184 209 232 237 242 255 266 277 282 284 285 288 288 291 293 294 292 289 296 300
15 240 261 276 186 150 182 150 157 148 146 145 150 149 146 142 147 166 180 175 187 193 199 171 181 200 187 180 192 197 209 220 234 261 270 273 285 292 297 299 304 315 323 317 313 315 316 316 309
243 228 261 233 188 152 157 147 160 162 160 156 158 157 151 150 148 155 160 180 188 189 197 178 188 191 159 153 189 203 230 245 259 286 300 300 314 327 332 340 339 338 344 334 333 334 334 342 338
269 279 270 356 116 135 153 146 172 173 164 162 166 160 160 165 162 166 169 193 196 183 178 167 163 167 180 181 181 144 109 59 29 2 12 7 5 360 355 360 9 13 4 343 340 341 345 353 345
267 276 291 39 117 107 95 135 197 178 177 173 171 165 162 155 157 168 182 201 201 182 174 162 165 170 173 181 157 136 109 80 19 12 12 23 18 18 13 10 19 9 359 355 359 7 5 7 4
270 298 298 240 125 94 118 311 264 188 187 185 180 170 167 165 159 162 165 180 208 193 178 167 168 166 143 135 130 146 138 136 63 357 18 25 19 20 19 19 23 15 8 10 3 10 10 7 14
321 292 317 288 62 211 118 259 275 199 193 183 181 155 159 159 163 165 172 179 195 201 179 163 165 165 151 140 147 157 164 187 137 61 40 20 12 17 23 26 28 30 26 19 17 20 16 7 6
249 255 328 256 178 55 305 86 263 245 189 190 176 151 160 166 166 167 173 179 190 207 191 166 157 153 143 150 154 148 140 116 110 93 73 7 358 6 10 14 15 18 26 32 23 23 9 6 355
78 42 358 18 61 6 254 195 277 247 195 155 161 149 161 166 166 167 172 174 180 199 183 169 159 153 146 145 147 145 105 100 110 124 110 10 342 355 2 4 9 11 11 21 11 9 5 360 2
84 57 353 348 355 229 263 238 237 175 104 149 166 151 157 164 163 163 170 173 179 189 190 172 165 157 149 139 131 129 131 139 118 117 157 170 317 345 2 1 7 10 8 3 3 3 0 352 356
182 150 161 223 225 257 337 291 289 88 71 62 158 171 151 162 165 170 172 173 180 192 197 185 176 168 154 142 138 135 126 136 150 158 153 149 296 336 346 357 7 3 356 348 343 345 354 343 344
263 176 211 180 274 39 247 21 27 73 80 83 77 110 151 164 170 172 173 175 182 194 206 203 192 179 169 151 146 154 158 188 176 134 105 317 338 353 350 352 348 340 320 318 317 318 334 327 333
107 247 22 357 162 280 283 285 178 115 130 121 127 139 167 170 175 176 176 180 185 196 198 206 211 195 193 183 161 149 176 203 302 357 353 355 342 325 327 327 319 315 310 305 303 307 316 317 320
324 285 241 152 147 174 314 280 200 161 167 162 171 171 162 166 175 179 182 185 186 193 199 207 206 215 208 206 196 214 286 105 298 309 298 309 315 310 310 315 316 314 314 307 306 305 314 316 315
204 205 179 138 274 226 180 258 146 155 171 163 172 169 176 178 177 188 186 183 186 193 201 214 208 214 211 218 215 219 214 209 236 260 283 288 299 307 307 309 309 311 307 311 311 310 314 312 313